カタログに戻る

ICESAT-2

運用中科学PO
NORAD 43613·PAYLOAD·🇺🇸 United States

打ち上げ Sep 15, 2018 から Vandenberg Space Force Base

Loading…

次のパス (今後24時間)

TLE

最新Source: Space-Track

元期: Sep 14, 2026, 14:23 UTC

1 43613U 18070A   26257.59946439  .00006784  00000-0  24637-3 0  9994
2 43613  92.0025 315.1297 0005687 109.6972 250.4891 15.28260136446114

AllMySatでICESAT-2をリアルタイム追跡

Download on the App Store